• In Portugal
  • List of Countries
  • For 7 days
  • Water Temperature
  • Satellite Maps
  • Weather Map
  • Weather Widgets
  • user-avatar
    Login

    Hourly Weather Dublin

    Today, 22 September, Friday

    Time Temperature Precipitation Wind Pressure Humidity
    00:00 +6°C° 0 mm 5 mps 745 mmHg 94%
    01:00 +7°C° 0 mm 5 mps 745 mmHg 93%
    02:00 +7°C° 0 mm 6 mps 744 mmHg 93%
    03:00 +8°C° 0 mm 6 mps 744 mmHg 92%
    04:00 +8°C° 1 mm 7 mps 743 mmHg 92%
    05:00 +9°C° 1 mm 8 mps 743 mmHg 93%
    06:00 +8°C° 1 mm 9 mps 742 mmHg 93%
    07:00 +9°C° 0.9 mm 10 mps 742 mmHg 93%
    08:00 +9°C° 0.9 mm 10 mps 742 mmHg 93%
    09:00 +11°C° 0.9 mm 11 mps 742 mmHg 94%
    10:00 +12°C° 0.2 mm 10 mps 742 mmHg 91%
    11:00 +13°C° 0.2 mm 9 mps 742 mmHg 88%
    12:00 +15°C° 0.2 mm 8 mps 742 mmHg 86%
    13:00 +15°C° 0 mm 8 mps 742 mmHg 84%
    14:00 +15°C° 0 mm 7 mps 742 mmHg 82%
    15:00 +15°C° 0 mm 7 mps 743 mmHg 81%
    16:00 +14°C° 0 mm 6 mps 743 mmHg 84%
    17:00 +13°C° 0 mm 5 mps 743 mmHg 87%
    18:00 +13°C° 0 mm 4 mps 744 mmHg 90%
    19:00 +11°C° 0 mm 4 mps 744 mmHg 91%
    20:00 +10°C° 0 mm 3 mps 745 mmHg 93%
    21:00 +9°C° 0 mm 3 mps 745 mmHg 95%
    22:00 +9°C° 0 mm 3 mps 745 mmHg 95%
    23:00 +8°C° 0 mm 4 mps 745 mmHg 96%

    Tomorrow, 23 September, Saturday

    Time Temperature Precipitation Wind Pressure Humidity
    00:00 +8°C° 0 mm 4 mps 745 mmHg 96%
    01:00 +9°C° 0 mm 5 mps 745 mmHg 96%
    02:00 +10°C° 0 mm 5 mps 744 mmHg 96%
    03:00 +12°C° 0 mm 5 mps 744 mmHg 96%
    04:00 +11°C° 0 mm 6 mps 744 mmHg 96%
    05:00 +13°C° 0 mm 6 mps 744 mmHg 95%
    06:00 +13°C° 0 mm 6 mps 744 mmHg 95%
    07:00 +14°C° 0 mm 7 mps 744 mmHg 94%
    08:00 +14°C° 0 mm 7 mps 744 mmHg 93%
    09:00 +15°C° 0 mm 8 mps 745 mmHg 92%
    10:00 +15°C° 0 mm 8 mps 745 mmHg 88%
    11:00 +15°C° 0 mm 8 mps 745 mmHg 84%
    12:00 +16°C° 0 mm 9 mps 745 mmHg 80%
    13:00 +16°C° 0 mm 9 mps 744 mmHg 78%
    14:00 +16°C° 0 mm 9 mps 744 mmHg 76%
    15:00 +16°C° 0 mm 9 mps 744 mmHg 75%
    16:00 +15°C° 0 mm 9 mps 744 mmHg 78%
    17:00 +13°C° 0 mm 8 mps 744 mmHg 81%
    18:00 +12°C° 0 mm 8 mps 744 mmHg 85%
    19:00 +12°C° 0.1 mm 8 mps 744 mmHg 86%
    20:00 +12°C° 0.1 mm 8 mps 744 mmHg 87%
    21:00 +12°C° 0.1 mm 8 mps 744 mmHg 89%
    22:00 +12°C° 0.1 mm 8 mps 744 mmHg 89%
    23:00 +12°C° 0.1 mm 8 mps 744 mmHg 90%

    Day after tomorrow, 24 September, Sunday

    Time Temperature Precipitation Wind Pressure Humidity
    00:00 +12°C° 0.1 mm 8 mps 744 mmHg 91%
    01:00 +12°C° 0.2 mm 7 mps 744 mmHg 92%
    02:00 +14°C° 0.2 mm 7 mps 744 mmHg 94%
    03:00 +14°C° 0.2 mm 7 mps 744 mmHg 95%
    04:00 +14°C° 0.2 mm 7 mps 744 mmHg 96%
    05:00 +14°C° 0.2 mm 6 mps 744 mmHg 96%
    06:00 +14°C° 0.2 mm 6 mps 744 mmHg 97%
    07:00 +14°C° 0.5 mm 6 mps 744 mmHg 97%
    08:00 +14°C° 0.5 mm 5 mps 745 mmHg 96%
    09:00 +13°C° 0.5 mm 5 mps 745 mmHg 96%
    10:00 +14°C° 0.6 mm 5 mps 745 mmHg 94%
    11:00 +14°C° 0.6 mm 4 mps 745 mmHg 93%
    12:00 +14°C° 0.6 mm 4 mps 746 mmHg 91%
    13:00 +14°C° 0.4 mm 4 mps 745 mmHg 90%
    14:00 +16°C° 0.4 mm 3 mps 745 mmHg 88%
    15:00 +16°C° 0.4 mm 3 mps 745 mmHg 87%
    16:00 +14°C° 0.4 mm 3 mps 745 mmHg 89%
    17:00 +14°C° 0.4 mm 2 mps 746 mmHg 91%
    18:00 +13°C° 0.4 mm 2 mps 746 mmHg 93%
    19:00 +13°C° 0.4 mm 2 mps 746 mmHg 94%
    20:00 +11°C° 0.4 mm 3 mps 746 mmHg 94%
    21:00 +10°C° 0.4 mm 3 mps 746 mmHg 95%
    22:00 +9°C° 0.1 mm 3 mps 747 mmHg 96%
    23:00 +8°C° 0.1 mm 4 mps 747 mmHg 96%

    25 September, Monday

    Time Temperature Precipitation Wind Pressure Humidity
    00:00 +8°C° 0.1 mm 4 mps 747 mmHg 96%
    01:00 +7°C° 0 mm 4 mps 747 mmHg 97%
    02:00 +7°C° 0 mm 4 mps 747 mmHg 97%
    03:00 +7°C° 0 mm 4 mps 747 mmHg 97%
    04:00 +7°C° 0 mm 4 mps 747 mmHg 97%
    05:00 +6°C° 0 mm 4 mps 747 mmHg 97%
    06:00 +6°C° 0 mm 4 mps 747 mmHg 97%
    07:00 +7°C° 0 mm 4 mps 747 mmHg 95%
    08:00 +10°C° 0 mm 4 mps 748 mmHg 94%
    09:00 +11°C° 0 mm 3 mps 748 mmHg 92%
    10:00 +12°C° 0 mm 3 mps 748 mmHg 86%
    11:00 +14°C° 0 mm 3 mps 748 mmHg 80%
    12:00 +16°C° 0 mm 3 mps 748 mmHg 74%
    13:00 +16°C° 0 mm 2 mps 748 mmHg 73%
    14:00 +17°C° 0 mm 2 mps 748 mmHg 72%
    15:00 +17°C° 0 mm 2 mps 748 mmHg 70%
    16:00 +16°C° 0 mm 1 mps 748 mmHg 75%
    17:00 +14°C° 0 mm 1 mps 749 mmHg 80%
    18:00 +13°C° 0 mm 1 mps 749 mmHg 85%
    19:00 +12°C° 0 mm 1 mps 749 mmHg 87%
    20:00 +11°C° 0 mm 1 mps 749 mmHg 89%
    21:00 +10°C° 0 mm 1 mps 749 mmHg 90%
    22:00 +10°C° 0 mm 1 mps 749 mmHg 91%
    23:00 +10°C° 0 mm 1 mps 749 mmHg 91%

    26 September, Tuesday

    Time Temperature Precipitation Wind Pressure Humidity
    00:00 +9°C° 0 mm 1 mps 748 mmHg 92%
    01:00 +9°C° 0 mm 1 mps 748 mmHg 92%
    02:00 +9°C° 0 mm 1 mps 748 mmHg 92%
    03:00 +9°C° 0 mm 1 mps 748 mmHg 93%
    04:00 +9°C° 0 mm 1 mps 748 mmHg 93%
    05:00 +9°C° 0 mm 1 mps 748 mmHg 94%
    06:00 +8°C° 0 mm 2 mps 748 mmHg 94%
    07:00 +9°C° 0 mm 2 mps 748 mmHg 91%
    08:00 +10°C° 0 mm 3 mps 748 mmHg 88%
    09:00 +12°C° 0 mm 3 mps 748 mmHg 86%
    10:00 +13°C° 0 mm 4 mps 748 mmHg 82%
    11:00 +14°C° 0 mm 4 mps 748 mmHg 78%
    12:00 +16°C° 0 mm 5 mps 748 mmHg 74%
    13:00 +15°C° 0 mm 5 mps 748 mmHg 75%
    14:00 +15°C° 0 mm 5 mps 748 mmHg 77%
    15:00 +15°C° 0 mm 5 mps 747 mmHg 78%
    16:00 +14°C° 0 mm 5 mps 747 mmHg 82%
    17:00 +13°C° 0 mm 5 mps 747 mmHg 86%
    18:00 +12°C° 0 mm 5 mps 747 mmHg 89%
    19:00 +12°C° 0 mm 5 mps 747 mmHg 91%
    20:00 +12°C° 0 mm 5 mps 747 mmHg 93%
    21:00 +10°C° 0 mm 5 mps 747 mmHg 95%
    22:00 +10°C° 0 mm 5 mps 747 mmHg 94%
    23:00 +11°C° 0 mm 6 mps 747 mmHg 92%

    27 September, Wednesday

    Time Temperature Precipitation Wind Pressure Humidity
    00:00 +11°C° 0 mm 6 mps 747 mmHg 91%
    01:00 +11°C° 0.1 mm 6 mps 747 mmHg 91%
    02:00 +11°C° 0.1 mm 7 mps 746 mmHg 91%
    03:00 +12°C° 0.1 mm 7 mps 746 mmHg 91%
    04:00 +12°C° 0.3 mm 8 mps 746 mmHg 92%
    05:00 +12°C° 0.3 mm 8 mps 746 mmHg 93%
    06:00 +12°C° 0.3 mm 8 mps 746 mmHg 93%
    07:00 +12°C° 0.8 mm 8 mps 746 mmHg 93%
    08:00 +12°C° 0.8 mm 9 mps 746 mmHg 93%
    09:00 +12°C° 0.8 mm 9 mps 746 mmHg 93%
    10:00 +12°C° 0.8 mm 9 mps 746 mmHg 93%
    11:00 +12°C° 0.8 mm 10 mps 745 mmHg 92%
    12:00 +12°C° 0.8 mm 10 mps 745 mmHg 92%
    13:00 +12°C° 0.9 mm 10 mps 745 mmHg 92%
    14:00 +12°C° 0.9 mm 10 mps 745 mmHg 92%
    15:00 +12°C° 0.9 mm 10 mps 745 mmHg 92%
    16:00 +12°C° 0.8 mm 10 mps 745 mmHg 93%
    17:00 +12°C° 0.8 mm 9 mps 745 mmHg 93%
    18:00 +12°C° 0.8 mm 9 mps 745 mmHg 93%
    19:00 +12°C° 1.5 mm 9 mps 745 mmHg 94%
    20:00 +12°C° 1.5 mm 9 mps 745 mmHg 94%
    21:00 +12°C° 1.5 mm 9 mps 746 mmHg 94%
    22:00 +12°C° 1.7 mm 9 mps 746 mmHg 95%
    23:00 +13°C° 1.7 mm 9 mps 745 mmHg 95%
    Show more